Location: Spruce Knob
(38.6995°N, 79.5330°W)
Time: 19:06:49
(UTC-04:00)

Transit 2A - Pass Details

Date: 10 August 2022
Orbit: 601 x 956 km, 66.7° (Epoch: 27 September)

Event Time Altitude Azimuth Distance (km) Brightness Sun altitude
Rises 22:21:43 0° 327° (NNW) 2,859 10.3 -21.3°
Reaches altitude 10° 22:23:56 10° 324° (NW) 1,965 9.2 -21.6°
Maximum altitude 22:28:15 60° 245° (WSW) 721 5.9 -22.2°
Enters shadow 22:29:12 48° 196° (SSW) 828 5.9 -22.4°
